{"data":{"norad_id":59604,"intl_designator":"2024-080D","name":"STARLINK-31765","alt_names":[],"object_type":"PAYLOAD","status":"ACTIVE","operator":null,"country":"US","launch_date":"2024-04-28","launch_site_code":"AFETR","launch_vehicle":null,"mission":null,"orbit_class":"UNKNOWN","rcs_meters":null,"size_class":null,"mass_kg":null,"dimensions":null,"purposes":["comms"],"wikipedia_slug":null,"has_3d_model":false,"image_url":null,"decayed_at":null,"tle_current":{"epoch":"2026-05-25T04:34:43.896576Z","epoch_age_seconds":55074,"freshness":"FRESH","line1":"1 59604U 24080D   26145.19078584 -.00000901  00000+0 -23227-4 0  9999","line2":"2 59604  43.0002 322.3141 0001216 272.8534  87.2179 15.27568500116272","mean_motion":15.275685,"eccentricity":0.0001216,"inclination_deg":43.0002,"raan_deg":322.3141,"arg_perigee_deg":272.8534,"mean_anomaly_deg":87.2179,"bstar":-2.3227e-5,"rev_number":11627,"period_min":94.26745838239,"perigee_km":482.24920697617,"apogee_km":483.91785580941,"semimajor_km":6861.2205313928,"source":"CELESTRAK","updated_at":"2026-05-25T13:38:19.008009Z"}}}